sat.trackr.live / text

‹ back to catalog

STARLINK-37127

NORAD 68236 · 2026-054E

PAYLOAD ACTIVE UNKNOWN

§ Identity

Operator
Country
US
Launch date
2026-03-17
Launch site
AFETR
Launch vehicle
Mass (kg)
RCS (m²)

Purposes: comms

External: N2YO · Heavens-Above · Gunter

§ Orbital elements

Epoch: 2026-05-24T15:57:39.519072Z

Period
93.37 min
Inclination
53.1589°
Eccentricity
0.0001164
Mean motion
15.42178244 rev/d
Perigee alt
438.9 km
Apogee alt
440.5 km
Semi-major
6,817.8 km
B*
4.3484e-4
RAAN
301.9093°
Arg perigee
76.5122°
Mean anomaly
283.6013°
Rev number
1,065

§ Raw data

STARLINK-371271 68236U 26054E   26144.66504073  .00018568  00000+0  43484-3 0  99932 68236  53.1589 301.9093 0001164  76.5122 283.6013 15.42178244 10651

JSON: /api/v1/satellites/68236 · /tle

For live sub-satellite position, see the globe view (requires WebGL).

§ Visibility from observer

Set your observer location to see the next 7 days of passes ≥ 10°. The values pass through the URL so the page stays shareable.

No JS? Fill the form by hand. The geolocation button needs JavaScript.